7 * 24
多渠道服务支持
TIANQI-15 是一颗由中国发射的气象卫星,主要用于天气监测和气象数据收集。该卫星具备高分辨率成像和实时数据传输能力,可提供精准的气象预报和灾害预警。TIANQI-15 的成功发射,提升了我国在气象观测和防灾减灾方面的能力,为农业、航空、航海等领域提供重要支持。
中国
(CN)
| 数据来源 | 国际轨道数据 |
| 星历时间: | 2025-12-15T06:05:44+0800 20小时前 查看轨道信息 |
| 半长轴: | 6919.535km |
| 偏心率: | 0.0007346 |
| 轨道倾角: | 35.000° |
| 近地点辐角 | 233.529° |
| 升交点赤经 | 270.635° |
| 平近点角 | 126.475° |
| 近地点: | 536.316km |
| 远地点: | 546.484km |
| 周期: | 95.472分钟 |
| 每日圈数: | 15.082989 |